Lapse_Rate
6.5 6.5 6.4 6.5 6.5 6.5 6.5 6.5 6.5 6.4 6.4 6.5 6.5 6.5 5.7 3.3 3.7 3.8 3.1 2.0 2.1 1.1 -0.4 -0.4 -0.3 -0.1 1.1 0.6 0.7 1.2 0.7 0.2 0.8 1.0 1.6 1.9 2.1 2.2 2.3 2.6 2.9 2.6 2.8 2.9
6.6 6.5 6.5 6.5 6.5 6.5 6.6 6.5 6.5 6.5 6.5 6.6 5.6 5.7 5.0 4.4 3.9 3.5 3.7 3.1 1.1 0.6 0.2 0.9 1.0 0.1 -0.6 0.3 0.4 1.1 1.1 1.1 1.1 1.3 1.1 1.3 1.3 1.4 1.5 1.8 1.9 2.0 2.2 2.4
6.5 6.5 6.4 6.5 6.5 6.5 6.5 6.5 6.4 6.5 6.5 6.5 6.6 6.3 5.5 4.7 4.0 3.2 2.4 3.4 3.1 2.7 1.5 0.7 0.9 2.0 2.7 1.4 0.4 1.4 1.4 1.3 0.9 0.6 0.8 0.7 0.7 0.9 1.3 1.2 1.3 1.9 2.5 2.7
6.5 6.5 6.5 6.4 6.5 6.5 6.5 6.5 6.5 6.5 6.6 6.5 5.8 5.0 4.1 2.8 3.1 3.2 3.2 3.9 4.9 4.4 4.2 4.3 2.5 3.4 2.9 2.4 2.4 1.2 0.9 0.3 0.1 0.5 0.5 0.3 0.4 0.7 1.0 1.2 1.4 1.7 1.9 2.0
6.5 6.5 6.5 6.5 6.5 6.5 6.5 6.5 6.6 6.5 6.5 6.5 5.0 5.1 5.7 4.4 3.1 2.4 2.6 2.3 3.5 4.1 3.4 3.7 3.4 1.7 4.4 3.4 2.4 1.7 0.6 0.3 0.7 1.0 0.9 0.4 0.4 0.7 1.1 1.5 1.7 2.0 2.1 2.2
6.6 6.5 6.5 6.5 6.5 6.3 6.5 6.5 6.5 6.4 6.5 6.4 5.3 6.5 6.5 3.5 3.1 3.0 2.3 2.2 2.3 3.3 2.8 2.1 2.9 2.1 4.0 2.9 1.9 1.5 0.8 0.5 0.5 0.4 0.3 0.4 0.9 1.5 1.3 1.6 2.6 3.0 3.6 3.3
6.5 6.5 6.5 6.6 6.3 5.6 6.5 6.5 5.8 5.5 6.1 5.3 6.5 4.3 2.9 3.4 3.5 2.0 1.6 2.4 2.4 2.9 2.8 2.7 2.9 2.8 3.3 2.1 1.6 1.0 0.9 0.8 0.5 0.4 0.7 0.9 1.4 1.9 2.0 3.0 3.5 3.3 4.1 3.4
6.6 6.6 6.6 6.1 6.0 6.5 5.8 4.4 4.2 4.4 4.6 5.0 4.2 3.7 5.0 3.8 2.8 2.2 1.3 2.4 2.5 2.2 2.1 0.4 2.0 3.3 2.5 2.4 1.6 1.6 1.7 1.0 0.4 0.8 1.8 0.9 0.9 1.4 1.9 2.7 3.0 2.8 2.8 2.7
6.5 6.5 5.9 5.1 5.2 4.2 2.9 3.4 4.5 4.5 4.5 3.6 3.8 3.5 2.6 2.6 3.4 1.7 2.9 2.8 3.0 2.2 1.8 1.3 1.8 2.9 2.8 2.2 2.0 1.6 1.2 1.0 1.2 1.1 1.5 1.5 2.0 2.5 3.2 2.4 2.1 2.5 3.1 3.5
6.5 6.4 6.4 5.2 4.1 4.2 2.9 3.2 3.8 3.6 3.6 4.1 3.6 2.7 1.5 1.4 1.9 1.9 1.6 2.2 1.3 1.4 1.9 2.0 2.7 3.4 3.2 2.5 2.3 1.7 1.4 1.1 1.3 1.5 1.4 2.1 2.8 3.1 3.6 2.9 2.8 3.0 2.9 2.4
6.5 6.4 5.8 5.5 5.2 4.7 4.4 3.9 3.4 2.8 1.6 2.4 1.9 1.5 0.7 1.5 0.7 1.1 0.9 1.4 1.3 2.2 3.1 3.0 2.7 2.3 2.1 2.0 1.7 1.4 1.1 1.4 1.8 2.0 2.4 2.2 2.6 3.1 3.4 2.7 2.7 2.9 2.5 1.6
6.5 5.9 5.1 5.6 4.8 4.1 3.8 2.9 2.2 2.0 2.7 2.4 1.6 0.8 1.2 2.1 0.6 0.3 0.9 1.7 2.0 2.9 2.7 1.8 1.8 1.9 1.5 1.0 0.8 0.9 1.3 1.1 1.5 1.6 1.6 1.8 2.5 1.9 -0.1 1.1 0.7 1.3 0.8 1.0
5.6 5.0 5.1 6.1 5.0 4.0 3.3 2.9 2.2 1.4 1.9 1.1 0.8 1.0 0.7 1.0 0.4 0.6 1.5 1.6 2.2 2.1 1.8 1.7 1.6 1.5 0.7 0.4 0.6 1.2 1.4 1.1 1.5 1.9 2.0 2.3 2.4 2.5 2.8 0.8 -0.5 -0.7 -0.6 -0.3
4.1 5.0 5.3 3.3 4.9 4.4 3.7 3.7 2.8 1.6 0.3 2.2 1.4 1.2 1.2 1.1 0.7 1.9 2.1 1.7 1.7 1.8 2.0 1.4 1.0 1.3 0.9 0.8 1.5 2.3 2.0 2.0 2.0 1.8 1.9 2.0 2.0 2.2 1.8 1.5 1.8 1.8 1.0 0.7
3.3 3.3 4.0 4.6 4.0 3.8 4.0 3.3 2.5 1.6 0.7 1.8 1.7 0.5 0.6 0.6 0.8 0.4 0.1 1.0 1.8 2.0 2.0 2.2 2.3 2.1 1.5 1.7 1.9 2.0 2.5 2.5 1.7 1.8 1.5 1.3 1.5 1.6 1.0 1.0 1.6 1.6 1.3 1.3
4.1 3.8 3.9 3.3 3.3 3.9 3.9 3.1 2.7 2.0 1.7 2.0 3.2 2.0 1.4 0.9 0.4 -0.2 1.1 1.2 1.7 2.2 2.1 2.5 2.6 2.1 1.5 1.8 2.2 2.3 2.5 3.1 2.3 1.8 1.5 1.3 1.5 1.8 0.9 1.1 1.8 1.5 1.6 1.9
4.8 4.9 4.5 4.6 4.2 4.2 4.5 4.7 4.4 3.9 2.5 1.5 2.0 2.7 1.2 0.3 -0.5 0.8 1.7 2.0 2.3 2.3 2.1 1.8 2.1 1.5 1.6 1.9 2.3 2.3 1.5 2.1 3.1 1.5 1.9 1.9 1.8 2.1 1.5 1.7 1.8 1.3 1.6 1.7
3.7 4.3 4.7 5.0 4.4 4.4 4.5 4.7 3.9 3.6 3.8 2.6 1.5 2.6 2.8 3.0 2.2 2.3 2.3 2.0 1.8 1.4 1.4 2.7 2.8 2.3 1.8 1.7 2.0 1.5 1.3 2.0 1.6 2.0 2.0 2.4 2.3 1.7 1.5 2.0 1.8 1.8 1.7 1.9
4.5 4.3 5.0 4.9 4.6 4.4 4.5 4.3 3.9 3.4 3.4 2.7 2.7 3.3 2.7 2.2 1.7 1.9 2.3 2.5 2.6 3.2 2.8 3.0 3.5 2.7 2.0 2.7 2.3 1.5 1.9 1.8 1.8 2.0 2.3 2.8 2.3 2.0 2.0 2.1 2.2 2.1 2.1 2.3
4.9 4.9 5.0 4.9 4.1 3.6 3.6 3.7 3.7 3.4 3.6 3.4 3.6 3.7 3.2 3.1 2.9 2.8 3.1 2.7 3.9 3.6 2.9 2.5 3.8 2.7 2.6 3.3 4.2 2.0 2.5 2.5 2.3 2.0 2.2 2.4 2.6 2.5 2.1 1.7 2.0 2.1 1.9 1.9
4.9 4.8 5.0 4.4 3.7 3.1 2.7 2.6 3.0 2.9 2.7 3.4 3.8 3.4 3.4 3.4 3.6 2.7 3.4 3.6 3.6 4.0 4.1 4.1 4.2 3.1 2.8 3.3 3.4 2.7 2.7 2.2 2.3 2.3 2.4 2.0 2.3 2.5 2.3 2.8 2.2 2.2 3.2 2.0
4.4 4.1 4.1 4.2 3.8 3.6 2.9 2.5 2.4 2.6 2.9 3.2 3.8 4.1 4.2 3.9 3.9 3.6 3.3 4.9 3.8 2.8 2.8 2.8 3.4 3.6 3.4 4.4 3.8 4.0 3.9 3.3 3.8 2.0 1.1 1.8 2.1 2.5 3.0 3.5 2.3 1.8 2.3 1.6
4.1 4.2 3.8 3.6 3.4 3.4 3.1 2.6 2.6 2.8 2.9 2.9 3.5 4.0 4.5 4.4 4.2 4.5 4.6 4.3 3.7 2.9 3.7 3.3 2.9 2.9 2.8 3.1 3.0 3.6 4.0 4.1 3.9 2.6 2.0 1.9 2.8 3.4 2.4 2.7 1.7 1.6 1.7 2.3
3.3 3.4 3.4 3.3 2.7 3.0 3.1 3.1 2.8 2.9 3.1 3.1 2.7 3.1 3.6 4.3 4.6 4.8 4.5 4.1 3.9 4.6 4.6 4.2 3.8 3.6 3.3 3.4 2.9 3.4 3.6 3.6 2.5 2.2 2.7 2.0 2.2 2.0 1.6 1.6 1.8 1.8 1.8 1.5
3.7 4.3 3.0 2.8 2.3 1.9 2.0 2.3 2.3 2.3 2.6 2.9 3.1 2.9 3.3 3.6 4.8 4.8 4.7 5.0 4.5 4.0 4.6 4.2 4.0 4.0 4.5 4.2 4.1 3.6 2.3 1.8 1.8 2.1 2.5 2.7 2.4 2.3 2.0 1.8 1.6 1.6 1.5 1.2
3.1 2.9 3.6 3.8 2.9 2.7 3.3 2.0 2.6 2.4 2.1 2.6 2.7 2.8 2.6 2.6 2.8 3.2 3.8 3.9 4.1 3.4 4.4 5.6 5.1 4.7 4.2 4.4 3.9 3.1 1.8 1.7 1.5 1.3 1.9 2.5 2.3 2.9 2.0 2.7 3.0 1.2 1.2 1.0
4.3 3.5 3.6 3.7 2.5 2.5 2.7 2.2 2.8 2.9 2.1 1.9 2.1 1.6 1.7 2.0 2.5 2.2 2.3 3.0 2.9 3.2 3.4 3.5 3.3 3.1 3.1 2.9 2.8 2.7 2.0 1.7 1.3 2.1 2.4 2.8 2.8 2.5 3.3 3.1 1.9 2.1 1.2 0.7
Wind_Speed
7 5 6 6 5 5 4 6 6 7 9 7 14 16 13 8 9 6 1 7 15 11 8 5 7 9 6 6 7 6 7 7 6 6 6 5 5 5 5 6 5 5 5 5
3 4 7 3 4 4 3 3 6 1 6 5 2 4 6 6 9 9 4 5 10 13 12 5 1 2 10 8 8 7 7 6 6 6 6 5 5 6 6 6 6 6 6 6
4 1 2 4 2 2 2 3 4 4 7 2 3 6 4 8 7 8 8 7 7 10 14 11 9 8 8 10 10 9 8 6 6 6 6 5 5 5 5 5 5 5 5 5
3 3 3 5 3 2 5 2 3 2 4 2 7 6 5 7 9 9 9 11 10 11 13 8 14 9 9 6 5 6 6 6 6 6 5 5 5 4 4 3 3 3 3 4
4 4 0 4 5 1 4 4 3 5 4 3 4 5 2 4 9 7 9 12 12 12 13 13 14 16 9 4 1 4 6 6 5 4 4 4 4 3 2 3 3 3 3 3
2 4 6 5 3 4 2 4 5 5 4 7 6 3 3 6 8 6 8 12 15 16 14 17 16 19 12 8 6 6 5 5 5 5 5 4 3 2 1 2 3 3 5 5
2 3 3 2 4 4 2 6 3 1 1 3 3 3 4 7 7 5 10 16 13 11 14 15 12 11 9 6 6 5 5 4 4 4 5 4 2 1 3 4 5 5 5 5
2 4 3 3 3 4 5 5 5 4 3 3 2 1 6 7 12 15 13 8 9 7 7 11 14 11 9 7 5 5 3 4 6 4 3 4 6 3 4 5 5 5 4 4
5 4 4 5 5 4 2 4 4 4 4 5 4 3 3 3 11 7 7 8 6 9 10 10 13 11 9 7 6 5 6 6 4 5 4 4 4 3 2 4 4 2 2 3
4 4 4 1 5 3 5 5 6 6 7 2 3 5 5 5 5 5 7 9 9 11 13 11 10 9 7 8 6 6 6 6 5 5 4 3 2 2 4 4 2 1 3 3
4 4 1 4 6 5 8 4 8 10 12 5 8 6 6 4 5 5 7 9 11 10 10 10 8 8 8 8 7 6 6 5 4 4 5 3 2 2 3 1 3 3 1 2
3 2 5 4 5 4 4 5 9 6 2 6 8 8 7 6 6 8 9 10 10 10 11 9 8 7 6 7 7 7 6 4 4 4 3 3 2 3 9 1 8 7 7 4
3 3 5 4 7 6 5 8 8 7 7 6 6 6 9 6 8 9 9 10 10 11 10 9 8 7 7 7 6 6 6 6 4 4 4 3 2 3 3 4 7 8 7 6
4 3 3 9 4 7 9 8 7 7 7 2 5 7 7 6 4 8 11 11 12 11 10 9 7 7 7 6 6 6 5 6 3 3 3 3 4 4 4 4 4 2 3 2
8 8 5 4 6 7 6 8 10 9 8 5 2 7 12 12 10 10 9 10 10 10 9 8 8 8 7 7 7 5 4 3 4 2 2 2 3 3 3 4 4 4 2 1
6 7 7 8 7 7 6 7 6 6 7 6 3 4 9 11 9 9 10 12 13 11 11 10 8 7 7 7 7 5 4 6 5 3 3 4 3 2 3 5 5 4 4 4
4 4 5 4 5 5 5 2 2 4 6 7 8 5 4 6 9 9 8 8 9 12 12 10 9 8 7 7 6 3 3 4 7 4 2 3 4 4 4 5 4 4 5 4
6 4 4 1 2 3 4 5 5 5 7 9 9 9 10 13 15 15 13 9 7 7 8 7 7 6 6 6 5 4 4 5 4 5 4 4 4 4 5 4 4 4 4 3
5 5 3 2 2 2 3 5 5 6 8 9 2 9 10 6 6 7 6 7 9 9 7 7 11 10 7 6 7 4 5 5 5 3 4 4 4 4 5 5 4 5 5 4
5 3 2 1 3 3 4 4 5 6 7 6 3 5 5 5 5 6 6 6 2 4 7 7 8 7 7 8 10 5 5 5 6 5 4 4 4 5 5 7 5 5 5 5
5 3 2 1 3 4 4 4 4 5 6 6 5 5 5 5 5 6 4 2 2 5 5 8 7 5 5 5 5 5 4 5 5 5 6 5 5 5 5 4 5 5 4 5
3 4 5 3 1 3 3 2 3 3 4 5 4 5 6 5 5 5 4 5 2 3 4 4 1 3 2 1 3 4 5 5 5 4 5 5 5 5 5 5 5 5 6 5
2 2 3 4 5 3 2 3 3 2 2 3 3 3 3 3 3 3 5 3 3 4 3 4 6 9 8 2 2 3 4 5 5 5 5 5 5 5 5 5 5 5 5 6
3 4 4 4 2 2 5 4 5 4 4 3 4 4 3 2 0 1 2 3 2 2 2 3 5 4 4 2 3 4 4 5 5 5 5 6 5 4 4 5 5 5 5 6
3 4 4 3 5 5 6 5 5 5 5 5 5 4 4 3 2 3 3 3 4 2 2 3 5 6 2 3 4 5 5 5 5 5 5 5 5 5 5 5 6 6 5 5
4 4 4 6 5 4 3 3 3 2 2 4 4 4 4 4 4 4 4 4 4 4 3 4 4 4 3 5 7 6 5 5 5 5 6 5 5 5 6 6 7 5 6 6
1 1 1 1 1 3 2 4 3 3 3 3 3 2 4 4 4 4 5 5 4 4 4 4 4 5 5 7 7 7 6 5 6 5 5 5 5 5 6 7 6 6 5 5
Wind_Direction
232 224 191 221 219 159 183 176 160 266 219 205 208 189 194 168 140 153 183 147 160 161 154 153 130 121 125 110 105 117 112 106 112 110 104 93 74 66 61 53 45 41 36 29
226 199 214 251 67 96 136 105 278 292 289 237 63 78 159 128 141 148 127 162 172 154 139 133 334 165 129 124 124 115 110 115 115 104 92 85 78 71 65 55 49 47 39 36
215 186 162 317 209 217 261 173 146 181 228 180 87 113 98 117 160 153 146 163 173 165 144 123 76 28 336 158 147 132 128 118 109 103 92 81 76 67 55 52 47 41 40 33
143 52 208 246 258 230 130 79 355 322 328 241 116 130 136 164 155 158 148 136 127 124 104 81 106 57 349 325 2 94 110 113 113 115 109 87 71 62 63 37 38 18 355 347
133 165 45 312 313 157 156 246 206 247 143 125 109 121 111 218 165 160 148 143 145 135 136 149 127 136 230 251 148 118 119 125 129 126 110 100 94 86 39 37 12 358 323 338
153 146 176 240 310 1 291 299 213 190 174 158 163 117 244 179 145 121 127 143 135 142 153 144 167 154 183 185 165 158 161 152 141 131 122 115 110 90 54 19 340 354 20 48
144 122 277 295 345 325 182 242 152 184 185 141 103 197 146 147 134 143 153 160 152 147 165 159 134 131 162 150 164 157 147 135 121 127 140 136 107 14 63 69 56 42 51 82
121 108 191 239 44 142 254 324 338 320 289 171 127 40 118 187 183 177 175 154 161 140 136 122 119 133 140 142 136 132 146 151 142 162 171 117 103 78 66 63 64 48 59 54
176 212 174 204 194 250 256 310 325 295 305 134 96 83 47 143 198 202 141 126 163 126 115 108 119 137 142 148 160 167 161 171 168 153 151 123 115 113 90 81 85 76 88 74
72 245 200 192 97 153 206 246 285 294 296 178 142 119 94 106 139 132 124 129 128 121 123 121 125 136 148 159 174 172 174 163 167 154 146 150 117 66 103 110 106 87 78 71
264 234 56 78 78 356 307 271 273 277 247 215 154 177 147 142 128 123 119 110 114 122 122 125 128 131 146 165 168 174 158 167 162 160 163 154 133 108 123 134 167 156 173 120
238 308 97 60 31 22 60 1 333 336 211 161 174 176 139 163 151 137 131 128 122 124 128 133 138 149 165 174 165 162 162 149 170 153 153 144 142 111 47 55 108 115 133 140
175 150 101 132 82 39 36 11 352 338 247 179 158 163 154 152 157 145 143 136 136 141 141 151 161 169 173 172 166 170 156 167 166 163 170 153 179 158 160 47 62 76 85 98
31 123 73 37 37 29 36 11 3 15 26 187 148 132 139 154 123 147 155 153 148 148 159 161 158 178 184 177 176 181 161 166 163 174 189 196 189 199 183 168 162 174 245 150
52 60 90 97 57 41 41 17 28 14 350 357 285 167 154 160 174 171 155 152 149 149 158 163 171 195 186 178 171 170 171 168 162 174 205 205 178 187 186 166 182 182 201 348
70 61 49 43 23 27 31 26 30 359 338 323 276 237 208 174 163 155 157 151 149 172 178 174 180 187 170 165 170 174 189 139 142 142 128 108 121 157 166 176 183 191 184 212
91 39 30 19 7 352 1 31 49 337 307 307 285 201 176 156 133 146 161 164 166 173 173 164 184 171 161 164 156 165 155 150 159 100 159 176 175 176 172 155 182 196 209 199
105 113 108 107 330 338 348 2 3 2 332 291 267 172 166 174 175 170 177 181 168 154 173 177 161 149 148 149 151 140 142 150 146 180 182 176 187 179 170 166 177 198 217 213
117 126 120 28 314 325 351 9 3 344 329 316 212 182 179 173 172 165 165 169 162 164 210 170 163 153 160 174 154 153 161 162 166 181 201 167 164 172 179 187 193 204 210 214
151 142 129 66 39 57 21 15 13 1 345 346 54 97 102 123 154 154 154 136 153 213 165 187 171 165 174 188 158 161 169 181 182 184 198 191 190 201 210 195 198 205 206 213
205 197 220 5 5 11 28 22 30 21 352 15 46 68 89 96 102 109 103 123 159 246 183 197 189 171 181 172 165 180 179 176 187 194 201 207 201 213 221 230 223 206 234 228
216 204 227 234 268 314 309 328 355 355 6 19 36 59 79 66 83 82 111 184 212 57 112 123 150 74 96 256 201 193 198 207 213 208 203 202 211 210 219 222 227 217 221 224
229 235 233 225 226 251 288 277 286 292 320 349 14 43 70 88 114 153 148 160 144 121 110 97 76 60 37 18 278 251 229 220 205 207 203 207 216 222 216 216 227 217 225 230
240 232 234 258 205 212 262 272 250 256 252 251 239 219 164 155 133 168 136 138 163 268 79 77 59 37 13 316 294 272 243 240 218 217 235 226 215 208 224 228 227 230 236 232
229 235 224 200 212 237 247 261 267 253 244 249 250 230 222 232 189 195 214 217 220 242 275 229 220 226 232 273 275 262 248 240 238 226 221 219 218 215 233 227 227 227 229 233
212 228 227 211 219 228 240 181 228 270 234 257 252 215 205 218 216 225 231 242 236 209 224 235 209 199 195 253 259 264 245 232 222 223 221 225 221 226 233 235 242 227 231 231
221 84 35 217 226 199 192 184 179 249 209 213 248 218 199 208 222 224 241 249 235 218 220 234 223 209 221 237 251 249 237 228 221 220 220 225 219 227 234 239 241 235 229 226